Time,TemperatureF,DewpointF,PressureIn,WindDirection,WindDirectionDegrees,WindSpeedMPH,WindSpeedGustMPH,Humidity,HourlyPrecipIn,Conditions,Clouds,dailyrainin,SoftwareType,DateUTC
2013-01-12 00:01:00,67.7,66.0,30.18,NE,40,2.0,3.0,93,0.00,,,0.00,weatherlink.com 1.10,2013-01-12 05:01:00,
2013-01-12 00:16:00,67.3,65.0,30.18,NE,38,1.0,3.0,93,0.00,,,0.00,weatherlink.com 1.10,2013-01-12 05:16:00,
2013-01-12 00:31:00,66.8,65.0,30.17,NNE,19,0.0,1.0,94,0.00,,,0.00,weatherlink.com 1.10,2013-01-12 05:31:00,
2013-01-12 00:46:00,66.2,65.0,30.17,NNE,19,1.0,1.0,95,0.00,,,0.00,weatherlink.com 1.10,2013-01-12 05:46:00,
2013-01-12 01:01:00,65.7,64.0,30.17,NNE,19,0.0,1.0,95,0.00,,,0.00,weatherlink.com 1.10,2013-01-12 06:01:00,
2013-01-12 01:16:00,64.9,64.0,30.16,NNE,19,0.0,1.0,96,0.00,,,0.00,weatherlink.com 1.10,2013-01-12 06:16:00,
2013-01-12 01:31:00,65.0,64.0,30.16,NNE,19,0.0,1.0,97,0.00,,,0.00,weatherlink.com 1.10,2013-01-12 06:31:00,
2013-01-12 01:46:00,64.7,64.0,30.16,NNE,19,0.0,0.0,97,0.00,,,0.00,weatherlink.com 1.10,2013-01-12 06:46:00,
2013-01-12 02:01:00,64.0,63.0,30.16,NNE,19,0.0,1.0,97,0.00,,,0.00,weatherlink.com 1.10,2013-01-12 07:01:00,
2013-01-12 02:16:00,63.9,63.0,30.16,NNE,19,0.0,1.0,98,0.00,,,0.00,weatherlink.com 1.10,2013-01-12 07:16:00,
2013-01-12 02:31:00,63.9,63.0,30.15,NNE,19,0.0,1.0,98,0.00,,,0.00,weatherlink.com 1.10,2013-01-12 07:31:00,
2013-01-12 02:46:00,63.7,63.0,30.15,NNE,19,0.0,1.0,98,0.00,,,0.00,weatherlink.com 1.10,2013-01-12 07:46:00,
2013-01-12 03:01:00,63.7,63.0,30.15,NNE,19,0.0,1.0,98,0.00,,,0.00,weatherlink.com 1.10,2013-01-12 08:01:00,
2013-01-12 03:16:00,63.4,63.0,30.15,NNE,20,0.0,1.0,98,0.00,,,0.00,weatherlink.com 1.10,2013-01-12 08:16:00,
2013-01-12 03:31:00,63.4,63.0,30.15,NNE,15,0.0,1.0,98,0.00,,,0.00,weatherlink.com 1.10,2013-01-12 08:31:00,
2013-01-12 03:46:00,63.2,63.0,30.14,NNE,15,0.0,1.0,98,0.00,,,0.00,weatherlink.com 1.10,2013-01-12 08:46:00,
2013-01-12 04:01:00,63.0,63.0,30.14,NNE,15,0.0,0.0,98,0.00,,,0.00,weatherlink.com 1.10,2013-01-12 09:01:00,
2013-01-12 04:16:00,62.6,62.0,30.14,NNE,15,0.0,0.0,99,0.00,,,0.00,weatherlink.com 1.10,2013-01-12 09:16:00,
2013-01-12 04:31:00,62.2,62.0,30.14,NNE,15,0.0,0.0,99,0.00,,,0.00,weatherlink.com 1.10,2013-01-12 09:31:00,
2013-01-12 04:46:00,61.8,62.0,30.13,NNE,14,0.0,0.0,99,0.00,,,0.00,weatherlink.com 1.10,2013-01-12 09:46:00,
2013-01-12 05:01:00,61.3,61.0,30.14,NNE,15,0.0,0.0,98,0.00,,,0.00,weatherlink.com 1.10,2013-01-12 10:01:00,
2013-01-12 05:16:00,61.2,61.0,30.14,NNE,15,0.0,0.0,99,0.00,,,0.00,weatherlink.com 1.10,2013-01-12 10:16:00,
2013-01-12 05:31:00,61.6,61.0,30.14,NNE,15,0.0,0.0,99,0.00,,,0.00,weatherlink.com 1.10,2013-01-12 10:31:00,
2013-01-12 05:46:00,61.7,62.0,30.14,NNE,15,0.0,1.0,99,0.00,,,0.00,weatherlink.com 1.10,2013-01-12 10:46:00,
2013-01-12 06:01:00,61.8,62.0,30.14,NNE,14,0.0,0.0,99,0.00,,,0.00,weatherlink.com 1.10,2013-01-12 11:01:00,
2013-01-12 06:16:00,61.9,62.0,30.14,North,1,0.0,1.0,99,0.00,,,0.00,weatherlink.com 1.10,2013-01-12 11:16:00,
2013-01-12 06:31:00,61.9,62.0,30.14,North,1,0.0,1.0,99,0.00,,,0.00,weatherlink.com 1.10,2013-01-12 11:31:00,
2013-01-12 06:46:00,62.1,62.0,30.15,North,2,0.0,1.0,99,0.00,,,0.00,weatherlink.com 1.10,2013-01-12 11:46:00,
2013-01-12 07:01:00,62.2,62.0,30.15,North,2,0.0,1.0,99,0.00,,,0.00,weatherlink.com 1.10,2013-01-12 12:01:00,
2013-01-12 07:16:00,62.2,62.0,30.16,North,2,0.0,2.0,99,0.00,,,0.00,weatherlink.com 1.10,2013-01-12 12:16:00,
2013-01-12 07:31:00,62.3,62.0,30.16,North,1,0.0,1.0,99,0.00,,,0.00,weatherlink.com 1.10,2013-01-12 12:31:00,
2013-01-12 07:46:00,62.8,63.0,30.16,North,360,0.0,1.0,99,0.00,,,0.00,weatherlink.com 1.10,2013-01-12 12:46:00,
2013-01-12 08:01:00,63.6,63.0,30.16,NNE,21,1.0,2.0,99,0.00,,,0.00,weatherlink.com 1.10,2013-01-12 13:01:00,
2013-01-12 08:16:00,64.6,64.0,30.17,ENE,65,0.0,3.0,99,0.00,,,0.00,weatherlink.com 1.10,2013-01-12 13:16:00,
2013-01-12 08:31:00,65.8,66.0,30.17,NE,40,0.0,3.0,99,0.00,,,0.00,weatherlink.com 1.10,2013-01-12 13:31:00,
2013-01-12 08:47:00,67.4,66.0,30.17,ENE,76,2.0,5.0,96,0.00,,,0.00,weatherlink.com 1.10,2013-01-12 13:47:00,
2013-01-12 09:02:00,68.9,67.0,30.17,NNE,32,1.0,5.0,93,0.00,,,0.00,weatherlink.com 1.10,2013-01-12 14:02:00,
2013-01-12 09:17:00,70.9,68.0,30.18,NNE,26,1.0,7.0,90,0.00,,,0.00,weatherlink.com 1.10,2013-01-12 14:17:00,
2013-01-12 09:32:00,72.0,68.0,30.18,ESE,111,2.0,6.0,86,0.01,,,0.01,weatherlink.com 1.10,2013-01-12 14:32:00,
2013-01-12 09:47:00,73.4,68.0,30.17,ESE,107,4.0,10.0,84,0.01,,,0.01,weatherlink.com 1.10,2013-01-12 14:47:00,
2013-01-12 10:02:00,74.5,68.0,30.17,ENE,77,5.0,9.0,81,0.01,,,0.01,weatherlink.com 1.10,2013-01-12 15:02:00,
2013-01-12 10:17:00,75.5,67.0,30.17,ENE,66,12.0,12.0,75,0.01,,,0.01,weatherlink.com 1.10,2013-01-12 15:17:00,
2013-01-12 10:32:00,76.5,67.0,30.17,SE,142,7.0,9.0,73,0.00,,,0.01,weatherlink.com 1.10,2013-01-12 15:32:00,
2013-01-12 10:47:00,77.1,67.0,30.16,SE,144,7.0,10.0,71,0.00,,,0.01,weatherlink.com 1.10,2013-01-12 15:47:00,
2013-01-12 11:02:00,78.2,67.0,30.16,NE,50,6.0,9.0,69,0.00,,,0.01,weatherlink.com 1.10,2013-01-12 16:02:00,
2013-01-12 11:17:00,78.3,67.0,30.15,SSW,201,5.0,11.0,68,0.00,,,0.01,weatherlink.com 1.10,2013-01-12 16:17:00,
2013-01-12 11:32:00,78.8,67.0,30.14,SSE,147,6.0,12.0,67,0.00,,,0.01,weatherlink.com 1.10,2013-01-12 16:32:00,
2013-01-12 11:47:00,79.3,66.0,30.13,ESE,110,4.0,10.0,64,0.00,,,0.01,weatherlink.com 1.10,2013-01-12 16:47:00,
2013-01-12 12:02:00,79.2,65.0,30.12,ESE,106,3.0,12.0,62,0.00,,,0.01,weatherlink.com 1.10,2013-01-12 17:02:00,
2013-01-12 12:17:00,79.1,65.0,30.12,ENE,69,8.0,11.0,63,0.00,,,0.01,weatherlink.com 1.10,2013-01-12 17:17:00,
2013-01-12 12:32:00,80.2,66.0,30.11,ENE,60,3.0,8.0,62,0.00,,,0.01,weatherlink.com 1.10,2013-01-12 17:32:00,
2013-01-12 12:47:00,80.5,65.0,30.10,East,101,7.0,13.0,59,0.00,,,0.01,weatherlink.com 1.10,2013-01-12 17:47:00,
2013-01-12 13:02:00,81.4,66.0,30.10,SSE,167,8.0,11.0,59,0.00,,,0.01,weatherlink.com 1.10,2013-01-12 18:02:00,
2013-01-12 13:17:00,81.9,65.0,30.09,ESE,105,5.0,12.0,57,0.00,,,0.01,weatherlink.com 1.10,2013-01-12 18:17:00,
2013-01-12 13:32:00,81.2,64.0,30.09,ESE,115,3.0,10.0,57,0.00,,,0.01,weatherlink.com 1.10,2013-01-12 18:32:00,
2013-01-12 13:47:00,82.1,65.0,30.09,SE,138,5.0,10.0,56,0.00,,,0.01,weatherlink.com 1.10,2013-01-12 18:47:00,
2013-01-12 14:02:00,80.3,64.0,30.09,ESE,110,3.0,7.0,58,0.00,,,0.01,weatherlink.com 1.10,2013-01-12 19:02:00,
2013-01-12 14:17:00,80.7,64.0,30.09,ESE,109,4.0,8.0,57,0.00,,,0.01,weatherlink.com 1.10,2013-01-12 19:17:00,
2013-01-12 14:33:00,79.9,64.0,30.08,ESE,116,4.0,9.0,59,0.00,,,0.01,weatherlink.com 1.10,2013-01-12 19:33:00,
2013-01-12 14:48:00,81.1,64.0,30.07,East,97,8.0,8.0,57,0.00,,,0.01,weatherlink.com 1.10,2013-01-12 19:48:00,
2013-01-12 15:03:00,80.9,65.0,30.08,SE,128,4.0,9.0,58,0.00,,,0.01,weatherlink.com 1.10,2013-01-12 20:03:00,
2013-01-12 15:18:00,81.0,64.0,30.07,North,5,1.0,5.0,56,0.00,,,0.01,weatherlink.com 1.10,2013-01-12 20:18:00,
2013-01-12 15:33:00,81.1,64.0,30.08,ENE,69,5.0,9.0,57,0.00,,,0.01,weatherlink.com 1.10,2013-01-12 20:33:00,
2013-01-12 15:48:00,80.7,64.0,30.08,NNE,21,2.0,7.0,58,0.00,,,0.01,weatherlink.com 1.10,2013-01-12 20:48:00,
2013-01-12 16:03:00,80.9,64.0,30.08,NE,52,2.0,6.0,56,0.00,,,0.01,weatherlink.com 1.10,2013-01-12 21:03:00,
2013-01-12 16:18:00,80.7,64.0,30.09,NNE,14,1.0,4.0,58,0.00,,,0.01,weatherlink.com 1.10,2013-01-12 21:18:00,
2013-01-12 16:33:00,80.3,64.0,30.09,NE,54,2.0,4.0,58,0.00,,,0.01,weatherlink.com 1.10,2013-01-12 21:33:00,
2013-01-12 16:48:00,80.0,65.0,30.09,NNW,340,0.0,2.0,60,0.00,,,0.01,weatherlink.com 1.10,2013-01-12 21:48:00,
2013-01-12 17:03:00,79.8,65.0,30.09,NE,45,1.0,4.0,61,0.00,,,0.01,weatherlink.com 1.10,2013-01-12 22:03:00,
2013-01-12 17:18:00,80.0,65.0,30.09,North,9,1.0,4.0,61,0.00,,,0.01,weatherlink.com 1.10,2013-01-12 22:18:00,
2013-01-12 17:33:00,79.0,65.0,30.09,NNE,14,1.0,2.0,63,0.00,,,0.01,weatherlink.com 1.10,2013-01-12 22:33:00,
2013-01-12 17:48:00,77.1,65.0,30.09,NNE,19,0.0,2.0,66,0.00,,,0.01,weatherlink.com 1.10,2013-01-12 22:48:00,
2013-01-12 18:03:00,75.2,65.0,30.09,NNE,19,0.0,1.0,71,0.00,,,0.01,weatherlink.com 1.10,2013-01-12 23:03:00,
2013-01-12 18:18:00,73.4,65.0,30.10,NNE,18,0.0,0.0,74,0.00,,,0.01,weatherlink.com 1.10,2013-01-12 23:18:00,
2013-01-12 18:33:00,72.4,64.0,30.10,NNE,18,0.0,0.0,76,0.00,,,0.01,weatherlink.com 1.10,2013-01-12 23:33:00,
2013-01-12 18:48:00,71.2,64.0,30.10,NNE,18,0.0,1.0,78,0.00,,,0.01,weatherlink.com 1.10,2013-01-12 23:48:00,
2013-01-12 19:03:00,71.5,64.0,30.10,NE,34,2.0,2.0,78,0.00,,,0.01,weatherlink.com 1.10,2013-01-13 00:03:00,
2013-01-12 19:19:00,71.6,64.0,30.10,North,7,0.0,2.0,78,0.00,,,0.01,weatherlink.com 1.10,2013-01-13 00:19:00,
2013-01-12 19:33:00,71.3,65.0,30.10,NNE,29,0.0,2.0,79,0.00,,,0.01,weatherlink.com 1.10,2013-01-13 00:33:00,
2013-01-12 19:48:00,71.0,65.0,30.10,NNE,29,0.0,1.0,80,0.00,,,0.01,weatherlink.com 1.10,2013-01-13 00:48:00,
2013-01-12 20:03:00,70.7,65.0,30.09,NNE,32,0.0,2.0,81,0.00,,,0.01,weatherlink.com 1.10,2013-01-13 01:03:00,
2013-01-12 20:18:00,70.3,64.0,30.09,NNE,32,0.0,1.0,81,0.00,,,0.01,weatherlink.com 1.10,2013-01-13 01:18:00,
2013-01-12 20:33:00,70.0,64.0,30.09,NNE,31,0.0,1.0,82,0.00,,,0.01,weatherlink.com 1.10,2013-01-13 01:33:00,
2013-01-12 20:48:00,70.1,64.0,30.09,NNE,12,0.0,2.0,82,0.00,,,0.01,weatherlink.com 1.10,2013-01-13 01:48:00,
2013-01-12 21:03:00,70.5,65.0,30.09,ENE,74,1.0,5.0,82,0.00,,,0.01,weatherlink.com 1.10,2013-01-13 02:03:00,
2013-01-12 21:18:00,70.3,65.0,30.09,ENE,71,2.0,3.0,83,0.00,,,0.01,weatherlink.com 1.10,2013-01-13 02:18:00,
2013-01-12 21:33:00,70.6,65.0,30.09,ESE,102,4.0,6.0,83,0.00,,,0.01,weatherlink.com 1.10,2013-01-13 02:33:00,
2013-01-12 21:48:00,70.7,65.0,30.09,East,97,2.0,7.0,83,0.00,,,0.01,weatherlink.com 1.10,2013-01-13 02:48:00,
2013-01-12 22:03:00,70.6,66.0,30.09,ENE,71,3.0,7.0,84,0.00,,,0.01,weatherlink.com 1.10,2013-01-13 03:03:00,
2013-01-12 22:18:00,70.3,65.0,30.09,ENE,76,3.0,6.0,84,0.00,,,0.01,weatherlink.com 1.10,2013-01-13 03:18:00,
2013-01-12 22:33:00,70.0,65.0,30.09,East,91,3.0,6.0,85,0.00,,,0.01,weatherlink.com 1.10,2013-01-13 03:33:00,
2013-01-12 22:48:00,69.7,65.0,30.09,East,99,3.0,6.0,86,0.00,,,0.01,weatherlink.com 1.10,2013-01-13 03:48:00,
2013-01-12 23:03:00,69.5,66.0,30.10,ENE,64,2.0,5.0,87,0.00,,,0.01,weatherlink.com 1.10,2013-01-13 04:03:00,
2013-01-12 23:18:00,69.2,66.0,30.10,ENE,70,2.0,5.0,88,0.00,,,0.01,weatherlink.com 1.10,2013-01-13 04:18:00,
2013-01-12 23:33:00,68.9,66.0,30.09,East,88,2.0,4.0,89,0.00,,,0.01,weatherlink.com 1.10,2013-01-13 04:33:00,
2013-01-12 23:48:00,68.3,65.0,30.09,East,81,0.0,4.0,90,0.00,,,0.01,weatherlink.com 1.10,2013-01-13 04:48:00,